FDX125 KLAX-EGLL

Flight info

Callsign FDX125
Flight time N/A
Altitude 31000
Route OSHNN1 BEALE Q842 WINEN DCT KU60O DCT KU75Q DCT KU03S DCT KATEN DCT DURUR Q817 KENRU/N0493F330 Q827 YYQ DCT YZS DCT 65N080W 66N070W/M084F330 DCT EPMAN/M084F350 DCT 67N050W 67N040W 6630N03000W 65N020W DCT RATSU/N0479F370 DCT BARKU DCT AKOMU DCT VAMEB DCT NUGRA
Aircraft MD11/H-SDE1E2E3FGHIJ2J3J4J5M1RWXY/LB1D1

Departure

Time 2026-04-25 04:32
Airport Los Angeles International Airport (KLAX)

Arrival

Time N/A
Airport London Heathrow Airport (EGLL)
Time Latitude Longitude Altitude Speed Heading
2026-04-25 04:13 33.93394 -118.38902 100 ft 0 kts 174°
2026-04-25 04:23 33.93398 -118.38902 99 ft 3 kts 174°
2026-04-25 04:24 33.93416 -118.38904 100 ft 3 kts 174°
2026-04-25 04:24 33.93423 -118.38905 100 ft 0 kts 165°
2026-04-25 04:24 33.93426 -118.38906 99 ft 1 kts 166°
2026-04-25 04:25 33.93436 -118.38908 100 ft 2 kts 169°
2026-04-25 04:25 33.93450 -118.38911 100 ft 3 kts 169°
2026-04-25 04:25 33.93469 -118.38916 99 ft 3 kts 169°
2026-04-25 04:25 33.93489 -118.38920 99 ft 3 kts 170°
2026-04-25 04:26 33.93507 -118.38927 99 ft 3 kts 147°
2026-04-25 04:26 33.93521 -118.38941 101 ft 3 kts 113°
2026-04-25 04:26 33.93524 -118.38962 98 ft 1 kts 83°
2026-04-25 04:26 33.93524 -118.38963 97 ft 0 kts 83°
2026-04-25 04:27 33.93524 -118.38962 97 ft 0 kts 83°
2026-04-25 04:27 33.93532 -118.38936 101 ft 7 kts 69°
2026-04-25 04:28 33.93552 -118.38846 101 ft 15 kts 81°
2026-04-25 04:28 33.93569 -118.38693 100 ft 22 kts 81°
2026-04-25 04:28 33.93589 -118.38517 101 ft 20 kts 83°
2026-04-25 04:28 33.93604 -118.38366 101 ft 14 kts 83°
2026-04-25 04:29 33.93629 -118.38302 102 ft 0 kts 44°
2026-04-25 04:30 33.93644 -118.38292 103 ft 5 kts 22°
2026-04-25 04:30 33.93695 -118.38286 105 ft 9 kts 357°
2026-04-25 04:30 33.93729 -118.38332 106 ft 7 kts 281°
2026-04-25 04:30 33.93726 -118.38364 105 ft 0 kts 262°
2026-04-25 04:31 33.93702 -118.38603 102 ft 65 kts 263°
2026-04-25 04:31 33.93620 -118.39420 102 ft 129 kts 262°
2026-04-25 04:32 33.93495 -118.40684 102 ft 171 kts 264°
2026-04-25 04:32 33.93332 -118.42191 216 ft 186 kts 264°
2026-04-25 04:32 33.93191 -118.43770 512 ft 194 kts 268°
2026-04-25 04:32 33.92990 -118.45408 822 ft 203 kts 257°
2026-04-25 04:33 33.92522 -118.47030 1204 ft 207 kts 251°
2026-04-25 04:33 33.91966 -118.48632 1650 ft 208 kts 241°
2026-04-25 04:33 33.91064 -118.49963 2111 ft 209 kts 228°
2026-04-25 04:33 33.90038 -118.51219 2516 ft 211 kts 229°
2026-04-25 04:34 33.89018 -118.52513 2941 ft 216 kts 230°
2026-04-25 04:34 33.87937 -118.53928 3151 ft 242 kts 227°
2026-04-25 04:34 33.86565 -118.55256 3314 ft 265 kts 210°
2026-04-25 04:34 33.84753 -118.55951 3509 ft 282 kts 182°
2026-04-25 04:35 33.82856 -118.55671 4393 ft 265 kts 162°
2026-04-25 04:35 33.81184 -118.54928 5241 ft 259 kts 162°
2026-04-25 04:35 33.79376 -118.54378 5377 ft 277 kts 169°
2026-04-25 04:35 33.77420 -118.53920 5535 ft 295 kts 169°
2026-04-25 04:36 33.75386 -118.53442 6022 ft 300 kts 169°
2026-04-25 04:36 33.73323 -118.52937 6555 ft 303 kts 168°
2026-04-25 04:36 33.71291 -118.52214 7051 ft 306 kts 154°
2026-04-25 04:36 33.69583 -118.50714 7561 ft 306 kts 127°
2026-04-25 04:37 33.68516 -118.48554 8015 ft 306 kts 110°
2026-04-25 04:37 33.67766 -118.46142 8491 ft 310 kts 106°
2026-04-25 04:37 33.67083 -118.43648 8974 ft 315 kts 105°
2026-04-25 04:37 33.66396 -118.41124 9446 ft 320 kts 106°
2026-04-25 04:38 33.65687 -118.38574 9914 ft 325 kts 107°
2026-04-25 04:38 33.64958 -118.35989 10382 ft 329 kts 106°
2026-04-25 04:38 33.64502 -118.33336 10816 ft 330 kts 94°
2026-04-25 04:38 33.64384 -118.30566 11240 ft 334 kts 89°
2026-04-25 04:39 33.64382 -118.27755 11672 ft 339 kts 88°
2026-04-25 04:39 33.64411 -118.24915 12107 ft 342 kts 87°
2026-04-25 04:39 33.64592 -118.22061 12551 ft 345 kts 79°
2026-04-25 04:39 33.65205 -118.19272 12993 ft 346 kts 66°
2026-04-25 04:40 33.66359 -118.16726 13295 ft 352 kts 51°
2026-04-25 04:40 33.68053 -118.14560 13443 ft 361 kts 38°
2026-04-25 04:40 33.70064 -118.12668 13595 ft 373 kts 33°
2026-04-25 04:40 33.72171 -118.10866 14001 ft 377 kts 33°
2026-04-25 04:41 33.74299 -118.09059 14399 ft 378 kts 33°
2026-04-25 04:41 33.76477 -118.07185 14570 ft 392 kts 34°
2026-04-25 04:41 33.78744 -118.05193 14727 ft 404 kts 34°
2026-04-25 04:41 33.80979 -118.03199 15114 ft 408 kts 35°
2026-04-25 04:42 33.83262 -118.01146 15521 ft 412 kts 36°
2026-04-25 04:42 33.85568 -117.99063 15919 ft 415 kts 36°
2026-04-25 04:42 33.87887 -117.96966 16337 ft 419 kts 36°
2026-04-25 04:42 33.90224 -117.94848 16752 ft 422 kts 37°
2026-04-25 04:43 33.92572 -117.92709 17155 ft 425 kts 37°